Regional Weather Roundup
Issued by NWS

Home | Current Version | Previous Version | Text Only | Print | Product List | Glossary On
Versions: 1 2 3 4 5 6 7 8 9 10 11 12 13 14 15 16 17 18 19 20 21 22 23 24 25 26 27 28 29 30 31 32 33 34 35 36 37 38 39 40 41 42 43 44 45 46 47 48 49 50
000
ASUS43 KOAX 251010
RWRNE

WEATHER ROUNDUP FOR NEBRASKA
NATIONAL WEATHER SERVICE OMAHA NE
500 AM CDT TUE JUL 25 2017

NOTES: SATELLITE DATA IS BEING USED TO AUGMENT CLOUD COVER ABOVE
       12000 FEET.
       "FAIR" INDICATES FEW OR NO CLOUDS BELOW 12,000 FEET WITH NO
       SIGNIFICANT WEATHER AND/OR OBSTRUCTIONS TO VISIBILITY.


NEZ001>004-019>022-054>056-251100-
NEBRASKA PANHANDLE

CITY           SKY/WX    TMP DP  RH WIND       PRES   REMARKS
SCOTTSBLUFF    PTCLDY    78  55  44 CALM      29.94S
ALLIANCE       CLOUDY    69  58  67 SE6       29.93R
CHADRON        CLEAR     76  54  46 SW5       29.86S
GORDON         FAIR      68  58  72 CALM      29.91S
KIMBALL        CLOUDY    68  58  70 SW7       30.03F
SIDNEY         CLEAR     73  60  63 SW13      29.99S
$$

NEZ057>060-069>072-079>082-251100-
SOUTHWEST NEBRASKA

CITY           SKY/WX    TMP DP  RH WIND       PRES   REMARKS
NORTH PLATTE   CLEAR     76  57  51 SE6       29.95S
IMPERIAL       CLEAR     73  61  65 S10       29.96S
LEXINGTON      CLEAR     74  59  58 SE8       29.98R
MCCOOK         CLEAR     75  60  59 SW7       29.96S
OGALLALA       CLEAR     74  62  66 CALM      29.95S
$$

NEZ005>010-023>029-035>040-094-251100-
NORTH CENTRAL NEBRASKA

CITY           SKY/WX    TMP DP  RH WIND       PRES   REMARKS
VALENTINE      CLEAR     71  57  61 S7        29.88F
AINSWORTH      CLEAR     73  58  58 S13       29.90S
BROKEN BOW     CLEAR     69  59  70 S10       29.96S
O`NEILL        CLEAR     74  67  79 S13       29.91S
ORD            CLEAR     74  62  66 S7        29.94R
THEDFORD       CLEAR     79  57  45 S15G21    29.93S
$$

NEZ041-046>049-061>064-073>077-083>087-251100-
SOUTH CENTRAL NEBRASKA

CITY           SKY/WX    TMP DP  RH WIND       PRES   REMARKS
GRAND ISLAND   CLEAR     72  68  87 S10       29.98R
AURORA         CLEAR     73  71  92 S9        29.98S
HASTINGS       CLEAR     73  65  75 S7        30.00R
HEBRON         CLEAR     74  71  88 CALM      30.00R
HOLDREGE       CLEAR     69  60  73 S6        29.99R
KEARNEY        CLEAR     73  63  70 S9        29.99R
YORK           CLEAR     73  72  94 S7        29.98S
$$

NEZ011>018-030>034-042>045-251100-
NORTHEAST NEBRASKA

CITY           SKY/WX    TMP DP  RH WIND       PRES   REMARKS
NORFOLK        CLEAR     74  69  85 S13       29.94R
ALBION         CLEAR     74  70  86 S7        29.95S
BLAIR          PTCLDY    73  66  78 S16       29.98F
COLUMBUS       CLEAR     75  71  87 S16       29.95S
FREMONT        PTCLDY    73  66  80 SE12      29.98S
TEKAMAH        CLOUDY    72  66  81 S8        29.96S
WAYNE          CLOUDY    72  72  99 S10       29.94S
$$

NEZ050>053-065>068-078-088>093-251100-
SOUTHEAST NEBRASKA

CITY           SKY/WX    TMP DP  RH WIND       PRES   REMARKS
LINCOLN        CLEAR     72  67  84 S9        29.98R
OMAHA EPPLEY   PTCLDY    75  65  70 S18       29.99S
BEATRICE       CLEAR     74  69  86 S10       30.00R
FALLS CITY     CLEAR     69  67  93 SE6       30.02S
NEBRASKA CITY  PTCLDY    71  70  98 S12       30.01F
PLATTSMOUTH    CLEAR     71  66  84 SE13      30.01R
$$

NEZ044-045-051>053-067-251100-
OMAHA AREA

CITY           SKY/WX    TMP DP  RH WIND       PRES   REMARKS
OMAHA EPPLEY   PTCLDY    75  65  70 S18       29.99S
BLAIR          PTCLDY    73  66  78 S16       29.98F
FREMONT        PTCLDY    73  66  80 SE12      29.98S
MILLARD        CLEAR     74  68  83 SE12      30.00R
OFFUTT AFB     CLEAR     71  65  81 SE10      30.00R
PLATTSMOUTH    CLEAR     71  66  84 SE13      30.01R
WAHOO          FAIR      69  67  93 SE9       29.98R
$$




USA.gov is the U.S. government's official web portal to all federal, state and local government web resources and services.